GSAT0202 (GALILEO 6)

Last updated on Sat Jun 21 2025 00:02:31 GMT+0000 (Coordinated Universal Time)

1 40129U 14050B 25171.47457181 -.00000075 00000+0 00000+0 0 9990 2 40129 49.2851 287.2743 1632986 166.2617 198.8146 1.85520273 73778
UTC large
Height (km)
Speed (km/s)
/
Latitude / Longitude
Inclination (degrees)
Orbital Period (minutes)
Azimuth
Elevation
Range (km)
Doppler Factor

Next 0 passes for location: London (51.5072 / 0.1276)

Sorry there are no passes over London.